Flag for Norway Weather past 2 weeks in Longyearbyen, Svalbard, Norway

Now
41 °F

Scattered clouds.


Feels Like: 34 °F
Forecast: 36 / 43 °F
Wind: 13 mph from West

Location: Svalbard Lufthavn

Current Time: Jul 31, 2014 at 12:17:25 PM

Latest Report: Jul 31, 2014 at 10:50 AM


Visibility: N/A

Pressure: 29.68 "Hg

Humidity: 61%

Dew point: 28 °F

Location of LongyearbyenLocation

Historic Weather in Longyearbyen — Graph

°F

Longyearbyen temperature yesterday

Maximum temperature yesterday: 46 °F (at 1:50 PM)
Minimum temperature yesterday: 43 °F (at 4:50 AM)
Average temperature yesterday: 45 °F

Past Weeks' High & Low Weather Summary

 TemperatureHumidityPressure
High52 °F (Jul 16, 1:50 PM)100% (Jul 18, 5:50 PM)30.15 "Hg (Jul 18, 5:50 PM)
Low37 °F (Jul 31, 3:50 AM)53% (Jul 30, 5:50 PM)29.65 "Hg (Jul 24, 12:50 PM)
Average45 °F81%29.93 "Hg
* Reported Jul 16 10:50 AM — Jul 31 10:50 AM, Longyearbyen, Weather by CustomWeather, © 2014

Note: Actual official high and low records may vary slightly from our data, if they occured in-between our weather recording intervals... More about our weather records

Advertising

Longyearbyen weather history for previous 24 hours

 ConditionsComfort  
Time TempWeatherWind HumidityBarometerVisibility
10:50 AM
Jul 31
41 °FScattered clouds.13 mph61%29.68 "HgN/A
9:50 AM41 °FPartly sunny.13 mph57%29.71 "HgN/A
8:50 AM39 °FPartly sunny.13 mph61%29.71 "HgN/A
7:50 AM37 °FBroken clouds.17 mph60%29.71 "HgN/A
6:50 AM39 °FBroken clouds.13 mph65%29.71 "HgN/A
5:50 AM37 °FPartly sunny.12 mph60%29.74 "HgN/A
4:50 AM37 °FPartly sunny.17 mph60%29.77 "HgN/A
3:50 AM37 °FPartly sunny.21 mph65%29.77 "HgN/A
2:50 AM39 °FScattered showers. Partly sunny.17 mph65%29.80 "HgN/A
1:50 AM41 °FScattered showers. Scattered clouds.17 mph66%29.80 "HgN/A
12:50 AM43 °FScattered showers. Scattered clouds.15 mph66%29.80 "HgN/A
11:50 PM
Jul 30
45 °FScattered showers. Partly sunny.10 mph57%29.80 "HgN/A
10:50 PM45 °FPassing clouds.8 mph53%29.83 "HgN/A
9:50 PM45 °FScattered clouds.10 mph61%29.83 "HgN/A
8:50 PM45 °FScattered clouds.10 mph66%29.83 "HgN/A
7:50 PM45 °FScattered clouds.9 mph57%29.86 "HgN/A
5:50 PM45 °FScattered clouds.6 mph53%29.89 "HgN/A
4:50 PM45 °FScattered clouds.5 mph57%29.89 "HgN/A
3:50 PM45 °FScattered clouds.3 mph57%29.89 "HgN/A
1:50 PM46 °FScattered clouds.7 mph57%29.92 "HgN/A
Weather by CustomWeather, © 2014

See weather overviewHow to use our weather pages